Orbital Elements
Epoch 2018 May 2.0 TT = JDT 2458240.5
T 2018 May 19.16178 TT Rudenko
q 1.2901099 (2000.0) P Q
n 0.06616912 Peri. 257.21265 +0.13916428 +0.98304323
a 6.0538612 Node 21.89630 -0.73799191 +0.18336013
e 0.7868947 Incl. 18.67516 -0.66030390 +0.00225080
P 14.9
From 640 observations 1944 June 12-2018 Nov. 10, mean residual 0".7.
Nongravitational parameters A1 = +0.04, A2 = -0.0099.
|